This is the latest recevied weather packets stored in our database for station/object WW6Q. If no packets are shown the sender has not sent any weather packets the latest 10 day(s).
| Time | Temp. | Humidity | Pressure | Rain* | Wind** | Luminosity | Snow |
|---|---|---|---|---|---|---|---|
| 1788305268 | 28.89° C | 83% | 1015.2 hPa | 0 mm | - | 31 W/m² | - |
| 1788304963 | 28.89° C | 83% | 1015 hPa | 0 mm | - | 37 W/m² | - |
| 1788304670 | 29.44° C | 82% | 1015.1 hPa | 0 mm | - | 41 W/m² | - |
| 1788304356 | 29.44° C | 82% | 1015.1 hPa | 0 mm | - | 46 W/m² | - |
| 1788304052 | 29.44° C | 81% | 1015 hPa | 0 mm | - | 54 W/m² | - |
| 1788303751 | 29.44° C | 81% | 1015 hPa | 0 mm | - | 66 W/m² | - |
| 1788303447 | 29.44° C | 80% | 1014.9 hPa | 0 mm | - | 68 W/m² | - |
| 1788303141 | 29.44° C | 80% | 1015.1 hPa | 0 mm | - | 67 W/m² | - |
| 1788302837 | 29.44° C | 81% | 1015.2 hPa | 0 mm | - | 82 W/m² | - |
| 1788302533 | 30° C | 80% | 1015 hPa | 0 mm | - | 77 W/m² | - |
| 1788302228 | 30° C | 77% | 1014.8 hPa | 0 mm | - | 78 W/m² | - |
| 1788301923 | 30° C | 76% | 1015.1 hPa | 0 mm | - | 97 W/m² | - |
| 1788301619 | 30° C | 73% | 1015.1 hPa | 0 mm | - | 104 W/m² | - |
| 1788301315 | 30° C | 73% | 1014.9 hPa | 0 mm | - | 116 W/m² | - |
| 1788301011 | 30.56° C | 73% | 1015 hPa | 0 mm | - | 125 W/m² | - |
| 1788300707 | 30° C | 74% | 1015 hPa | 0 mm | - | 112 W/m² | - |
| 1788300406 | 30.56° C | 75% | 1014.8 hPa | 0 mm | - | 114 W/m² | - |
| 1788300105 | 30.56° C | 75% | 1014.8 hPa | 0 mm | - | 126 W/m² | - |
| 1788299803 | 30.56° C | 74% | 1014.7 hPa | 0 mm | - | 128 W/m² | - |
| 1788299499 | 30.56° C | 76% | 1014.9 hPa | 0 mm | - | 149 W/m² | - |
| 1788299197 | 30.56° C | 76% | 1014.9 hPa | 0 mm | - | 167 W/m² | - |
| 1788298897 | 30.56° C | 76% | 1014.7 hPa | 0 mm | - | 178 W/m² | - |
| 1788298597 | 30.56° C | 76% | 1014.7 hPa | 0 mm | - | 174 W/m² | - |
| 1788298292 | 30.56° C | 76% | 1014.7 hPa | 0 mm | - | 137 W/m² | - |
| 1788297991 | 30.56° C | 74% | 1014.7 hPa | 0 mm | - | 155 W/m² | - |
* Rain latest hour (hover to see other rain measurements)
** Current wind speed in m/s (hover to see current wind gust speed)